Theta_e
344 344 344 343 343 343 342 338 338 331 332 333 333 336 336 333 332 334 333 334 335 333 335 336 336 336 337 340 340 340 341 337 335 339 341 329 330 324 334 342 345 339 335
344 345 344 343 342 341 337 332 331 331 332 334 336 335 333 332 334 332 334 335 335 335 335 336 336 336 337 339 340 339 342 336 340 342 345 340 322 326 335 343 341 329 335
347 344 343 342 340 338 335 333 331 332 332 335 336 333 332 334 333 333 335 336 335 335 335 335 336 336 335 339 339 341 342 339 342 343 344 347 327 326 330 340 336 333 333
348 346 341 341 340 339 338 335 335 333 335 336 334 332 331 334 332 331 334 334 333 335 335 335 334 334 334 334 340 341 343 339 342 345 344 344 339 330 323 336 336 333 333
347 347 343 343 342 340 341 338 336 336 335 334 334 331 330 333 331 333 334 332 333 335 335 335 333 333 333 335 335 339 343 342 344 341 342 343 342 332 330 334 328 335 335
351 344 342 342 343 341 341 341 338 335 335 332 331 331 331 333 333 334 333 331 333 335 336 333 336 331 334 338 335 337 340 345 345 343 341 338 337 337 330 339 332 340 328
350 343 343 341 339 340 339 338 336 333 331 331 331 331 333 334 334 333 332 333 333 338 335 335 335 330 332 338 339 339 344 347 346 349 346 342 324 328 323 338 331 333 327
351 348 345 344 342 340 341 335 332 332 331 331 332 334 334 334 333 332 336 337 338 338 337 338 339 338 334 335 337 339 342 347 348 347 347 344 326 324 322 329 331 336 326
351 349 346 344 343 339 333 332 331 331 331 332 333 333 334 334 333 335 339 339 340 340 341 338 339 340 337 339 339 340 346 346 349 347 346 346 335 328 327 327 323 335 335
352 349 350 345 343 337 332 331 331 331 331 330 331 332 335 336 340 349 349 344 341 342 341 339 339 339 341 341 342 347 348 347 348 349 346 343 341 324 324 327 334 337 331
351 351 352 349 347 345 333 333 333 332 331 331 332 335 337 334 348 353 350 344 341 340 342 342 340 347 347 345 345 346 346 345 348 339 347 344 339 339 324 322 324 331 328
350 350 351 350 350 349 350 333 333 332 332 333 339 346 343 351 350 349 345 349 350 348 347 348 346 347 348 349 348 348 342 346 349 345 342 346 342 339 336 326 322 322 329
352 351 352 350 349 347 349 345 341 344 346 348 345 348 351 351 350 351 351 348 349 350 349 350 343 339 349 350 349 347 347 346 347 347 343 346 344 338 341 336 326 323 323
349 351 352 351 349 350 350 346 347 350 347 350 350 347 345 346 346 346 350 348 350 350 350 350 350 349 349 348 345 344 345 346 346 346 347 346 343 339 339 341 337 326 324
347 351 352 353 349 350 352 348 349 349 348 348 348 349 346 349 350 348 343 346 349 347 348 350 348 347 346 345 344 341 342 344 344 344 345 343 343 339 339 339 340 340 329
349 349 349 350 350 344 351 351 348 349 350 346 348 349 348 347 348 348 349 347 347 349 350 347 347 345 343 343 341 344 340 339 340 340 339 340 341 340 337 339 339 339 341
348 349 349 352 351 346 346 350 349 350 348 349 347 349 351 350 345 347 348 347 347 349 349 348 346 345 344 349 349 341 338 336 338 337 336 337 338 339 338 340 338 339 339
350 350 350 351 354 353 349 352 347 346 349 348 350 348 349 351 349 347 346 349 350 349 348 347 345 345 345 340 337 333 336 337 338 338 340 337 339 343 343 342 340 338 338
349 350 350 351 351 353 350 349 352 353 352 347 350 351 348 349 348 348 347 350 349 351 347 344 347 345 342 339 333 334 338 339 339 339 338 337 338 336 338 343 341 339 336
349 349 351 351 351 352 352 349 351 350 353 350 353 349 349 351 348 352 347 349 348 345 346 348 346 344 333 336 339 334 336 337 338 341 336 340 340 342 343 344 341 341 342
349 350 350 351 351 354 353 354 350 352 350 345 352 352 353 350 349 348 347 348 347 342 348 345 343 334 337 339 336 338 340 337 337 340 339 337 337 340 339 339 338 345 344
349 350 351 351 352 351 353 353 351 348 352 351 351 347 348 347 349 349 346 350 346 347 348 344 333 333 337 337 333 337 337 339 339 339 336 334 336 336 341 337 339 339 341
349 350 351 352 352 353 351 352 350 354 352 353 352 352 348 347 347 349 349 348 351 347 339 339 340 335 338 338 338 339 340 340 339 339 337 334 329 334 334 334 331 329 340
349 350 353 353 352 352 350 357 349 352 352 346 346 347 349 351 349 350 345 349 348 337 338 337 338 337 331 339 336 338 332 333 338 339 337 335 331 330 330 331 329 327 322
350 352 354 354 354 351 351 355 356 352 349 349 348 347 347 348 346 350 348 346 343 331 338 337 340 326 341 334 337 337 336 332 333 328 335 333 332 331 330 328 328 326 327
350 352 353 355 355 354 354 350 354 357 350 349 349 348 347 346 346 347 346 348 330 336 342 336 331 326 334 336 337 336 333 334 334 334 333 332 332 332 331 330 329 328 328
Wind_Speed
21 23 25 25 26 26 25 26 28 29 26 23 21 20 20 18 17 16 16 15 14 14 14 14 14 14 14 13 12 11 10 14 14 12 16 13 10 9 12 15 14 3 7
24 24 25 27 28 26 25 26 28 28 24 22 20 18 17 15 15 15 14 14 13 13 13 14 14 14 14 13 12 11 11 16 14 11 12 14 11 8 11 10 11 5 8
22 24 24 26 25 25 25 26 26 25 23 20 18 17 15 14 14 13 13 13 13 12 12 13 13 13 13 13 12 11 12 16 16 12 9 9 13 7 10 10 6 9 8
22 21 23 23 23 23 24 24 23 23 20 18 16 14 13 13 12 12 12 12 11 10 11 12 12 12 12 12 12 11 11 14 17 12 10 10 6 7 10 10 11 9 10
22 18 21 21 21 21 21 21 21 20 18 16 14 11 10 10 10 10 11 10 9 10 11 11 11 11 11 11 10 10 10 13 14 14 11 7 4 8 11 11 10 11 11
19 18 19 20 21 21 20 19 19 18 17 14 12 9 8 9 9 9 8 9 9 9 10 11 11 10 10 11 10 9 9 12 11 12 10 1 4 7 8 11 10 10 9
18 19 18 19 19 19 19 19 19 17 15 12 10 10 8 7 7 7 8 8 7 9 10 10 11 10 10 11 12 11 9 12 13 7 5 2 7 5 8 10 9 9 9
18 17 19 19 18 18 17 18 17 15 13 12 11 9 7 6 6 6 7 7 7 9 9 9 10 10 9 10 12 14 11 10 10 7 6 1 5 6 9 10 9 9 9
19 15 18 19 18 17 17 17 15 14 13 11 9 6 5 6 7 8 8 10 9 9 9 9 10 9 9 11 13 11 12 9 8 7 6 3 4 4 7 9 9 8 8
21 13 14 16 17 17 18 16 15 13 12 9 6 4 6 6 5 9 9 12 12 10 10 11 9 9 10 12 12 11 5 0 5 6 10 10 5 3 4 7 8 8 7
18 17 15 13 14 12 17 16 12 11 9 6 5 6 4 2 4 2 10 13 12 13 11 13 12 11 9 10 10 12 13 9 3 9 5 8 8 1 3 5 7 8 7
20 17 16 17 15 12 11 12 10 7 5 4 3 3 4 6 4 5 9 9 8 12 11 9 6 3 5 9 9 12 9 16 9 8 8 3 9 4 3 5 6 7 8
20 21 19 16 15 14 18 5 4 3 0 2 1 3 1 5 2 7 5 9 10 9 8 8 7 10 12 11 10 10 8 15 18 12 16 4 9 6 1 4 5 6 7
20 22 22 22 18 16 18 4 6 9 2 8 8 5 8 2 1 5 6 8 7 7 7 7 14 8 7 8 9 8 6 12 12 14 10 7 9 9 3 3 6 5 7
20 16 26 21 18 21 13 10 12 11 10 7 9 9 7 3 6 8 8 8 8 3 6 6 7 8 8 7 9 9 6 6 3 8 7 8 8 10 5 5 5 8 6
21 19 21 20 18 25 22 14 15 14 7 12 7 12 10 7 9 7 8 10 6 6 7 10 11 9 5 5 4 7 7 6 7 9 8 10 9 9 7 5 6 7 10
23 22 22 19 20 19 23 17 20 11 11 8 10 6 8 12 13 15 12 10 6 9 8 11 7 4 6 10 11 3 8 7 4 7 11 8 10 8 5 3 4 7 7
23 24 23 19 19 17 18 17 16 10 12 15 10 11 11 14 12 13 9 5 7 8 9 15 6 5 9 7 8 8 5 6 5 6 2 2 6 9 5 4 2 3 7
25 25 25 22 22 21 16 17 13 14 16 14 13 11 12 10 13 12 5 9 8 9 12 8 3 4 3 5 5 9 1 5 5 2 3 3 4 4 7 6 5 7 7
26 27 25 24 21 24 18 14 16 14 15 15 14 14 14 11 10 13 5 11 14 14 5 5 2 8 8 4 5 7 4 5 3 4 6 1 4 3 4 2 6 6 5
27 28 29 27 27 21 22 21 21 21 20 18 13 11 10 13 13 14 14 11 7 4 5 3 9 5 4 1 6 8 11 0 7 6 3 2 8 1 2 6 5 4 5
30 31 30 31 30 31 24 21 15 11 11 13 10 15 16 13 11 11 7 4 2 2 5 9 11 3 3 4 5 6 5 8 5 10 4 3 6 5 1 2 8 9 2
34 33 34 33 32 30 26 20 21 18 15 9 11 13 13 11 12 10 12 9 7 9 6 6 4 3 0 1 8 2 6 2 10 9 6 6 4 7 1 5 6 3 5
34 35 33 32 31 31 28 23 19 19 13 12 11 12 16 8 4 11 8 9 10 8 6 3 2 4 4 3 5 3 5 4 2 5 11 3 2 2 4 2 8 7 3
34 35 35 32 31 31 29 30 23 20 15 15 13 16 11 11 13 13 12 12 11 11 9 9 8 7 4 2 2 1 2 1 4 2 3 6 6 6 1 2 6 6 8
37 37 38 37 35 31 31 30 29 21 22 17 15 17 17 21 16 17 12 16 11 14 9 6 5 5 10 9 6 4 3 3 1 3 6 6 4 8 7 6 8 5 7
Wind_Direction
120 121 129 134 136 134 128 128 129 131 129 124 119 111 105 103 98 95 91 89 85 76 67 60 59 60 61 65 71 75 80 70 69 71 68 79 72 91 104 102 100 108 100
127 125 128 131 136 136 133 131 131 133 131 126 119 110 105 99 95 93 92 86 78 67 58 53 51 53 55 60 67 71 79 79 75 69 73 61 57 92 113 108 134 106 105
126 129 132 132 135 135 135 132 133 133 135 128 118 111 106 98 93 89 82 76 67 60 53 48 48 46 49 54 54 59 80 94 80 61 69 74 50 77 126 105 103 103 103
124 129 132 136 136 136 131 132 133 137 134 127 121 114 104 92 91 83 75 65 62 60 53 44 42 47 47 55 55 56 72 102 90 72 50 125 2 88 115 99 103 104 102
130 146 137 138 141 136 132 135 138 135 134 131 126 119 103 95 88 78 68 58 60 53 44 42 37 42 52 52 58 64 68 100 101 87 86 109 6 109 113 113 107 117 103
136 149 137 134 137 139 137 138 140 143 139 131 128 120 112 97 88 74 60 48 49 40 37 39 39 38 47 53 57 64 75 95 108 102 119 114 12 108 121 122 119 122 114
142 149 143 139 139 141 142 142 144 142 140 135 131 130 116 103 86 67 44 37 37 31 33 38 45 43 37 49 58 65 76 96 115 82 113 0 30 117 126 132 133 130 126
141 148 149 147 149 145 146 144 145 147 145 144 141 133 120 103 77 55 39 33 29 29 30 36 46 43 39 39 53 65 68 81 91 136 124 118 31 114 121 144 136 138 137
142 151 153 154 154 150 146 147 150 150 150 148 146 141 112 65 41 28 27 35 22 22 23 28 39 44 48 42 51 77 96 105 149 149 95 97 41 110 132 135 141 140 137
151 148 143 154 155 155 155 154 155 156 155 154 156 128 75 55 13 18 21 4 9 13 24 27 37 38 57 50 59 58 25 178 171 104 84 41 38 80 138 147 145 151 147
143 150 153 153 158 161 171 169 166 167 171 173 167 105 102 136 11 6 354 4 11 24 30 35 54 49 37 38 51 22 338 336 3 18 84 44 22 22 135 152 165 165 168
162 165 157 164 156 165 171 176 183 182 186 201 115 89 113 323 17 312 338 356 8 23 18 29 48 69 37 4 6 11 355 323 236 71 93 43 19 339 156 157 165 181 180
163 167 168 177 164 153 190 206 165 98 195 352 325 254 286 264 245 311 331 321 352 23 6 341 332 347 30 326 338 322 3 319 352 53 42 66 15 344 242 177 172 186 191
173 181 177 168 165 189 194 206 158 206 204 234 252 272 221 260 320 296 307 336 2 324 335 327 335 1 330 334 318 333 356 335 9 5 5 17 353 336 267 204 195 193 191
175 183 175 171 180 180 180 198 207 209 197 202 249 290 315 235 274 287 276 272 294 290 319 343 287 281 315 299 320 326 292 357 337 353 343 333 337 335 289 229 208 209 206
178 181 184 193 202 195 187 191 206 185 215 207 230 264 275 276 229 264 280 281 305 314 274 286 294 285 351 332 341 345 4 352 298 279 282 306 314 326 331 276 231 221 222
185 187 194 195 211 209 198 213 200 197 219 220 213 259 259 272 260 236 255 276 292 289 292 303 331 353 345 322 318 17 319 317 292 287 271 248 289 300 293 313 266 248 243
190 193 194 195 206 212 206 213 215 198 224 219 234 255 258 255 278 279 272 306 289 283 296 296 311 352 352 297 312 315 294 311 305 298 339 89 273 280 270 282 273 273 264
195 196 198 199 204 217 222 209 214 211 236 239 217 243 264 256 277 279 252 287 246 255 281 289 277 328 280 301 295 324 243 331 319 57 273 311 188 291 283 292 306 330 284
196 200 202 200 200 220 223 216 209 216 228 239 243 259 242 257 263 264 229 260 273 280 273 302 318 286 321 347 308 270 278 245 230 95 47 241 139 62 107 331 315 302 275
199 200 205 201 202 201 201 208 212 219 233 234 219 246 243 250 272 252 252 241 297 267 250 284 280 287 351 339 282 335 232 37 154 119 155 79 113 29 277 243 236 239 268
200 204 208 207 206 210 209 215 226 217 240 251 234 227 250 262 243 257 256 245 261 271 243 292 317 209 156 279 318 276 224 195 184 180 215 223 168 75 199 285 244 274 329
201 205 210 212 207 213 208 219 214 219 218 202 229 230 274 264 254 226 241 209 191 211 259 284 14 28 93 332 335 346 12 47 193 202 160 183 169 189 330 314 287 234 213
203 205 212 216 214 218 207 208 211 221 205 236 226 260 244 238 182 229 214 205 224 177 226 295 209 188 136 86 347 353 344 7 12 137 178 253 65 151 197 177 326 1 28
205 202 205 216 216 217 214 203 204 209 213 211 223 221 211 219 220 209 206 212 219 184 216 216 225 187 136 182 21 234 354 43 343 322 173 210 191 213 190 168 224 302 318
204 203 204 211 218 220 215 211 204 210 209 213 208 228 234 239 217 202 202 213 211 174 220 226 230 197 190 197 205 198 199 297 72 317 314 334 353 254 215 242 260 282 259